Weather in Shaydoma

Russia / Republic of Karelia     62°42′19″N   34°12′11″E
temp.,
°C
wind,
m/s
gust,
m/s
humid.,
%
clouds,
%
prec.,
mm/h
press.,
hPa
HPBL,
m
4 march, thu
thu400:00−4nnw4119182 0.1 995668
03:00−7nnw4109290 0.1 998390
06:00−10nnw389682 0.0 998160
09:00−9nw389463 0.0 999240
12:00−6nw489251 0.0 999486
15:00−5nw488870 0.0 999677
18:00−6nnw389396 0.1 1000501
21:00−10nw239688 0.2 100181
5 march, fri
fri500:00−12n239489 0.1 100246
03:00−15nnw239470 0.1 100440
06:00−16nw239226 0.0 100573
09:00−12nw389462 0.1 1007376
12:00−9nnw378986 0.0 1009649
15:00−9nnw368590 0.1 1011878
18:00−12nnw239270 0.0 101225
21:00−15nw239534 0.0 101323
6 march, sat
sat600:00−16wnw22920 0.0 101420
03:00−16wsw23950 0.0 101429
06:00−16wsw23960 0.0 101347
09:00−15sw27960 0.0 1012154
12:00−9ssw379435 0.0 1008344
15:00−6ssw5118862 0.0 1004914
18:00−7s61494100 0.5 9971114
21:00−6s71494100 1.7 990983
7 march, sun
sun700:00−4s51196100 2.3 986702
03:00−9wnw41284100 3.7 985659
06:00−13wnw2584100 0.1 986130
09:00−16nw238984 0.1 98770
12:00−10nnw13794 0.0 989295
15:00−9nw358234 0.0 991488
18:00−11nnw4993100 0.1 993393
21:00−11n61388100 0.3 996733
8 march, mon
mon800:00−12n61289100 0.1 998867
03:00−16n61489100 0.1 1002576
06:00−18n61590100 0.0 1004525
09:00−19n61491100 0.1 1008509
12:00−16n6129199 0.0 1011507
15:00−15n5119199 0.0 1013519
18:00−17n4128865 0.0 1016471
21:00−20n4109334 0.0 1018325